This is the latest recevied weather packets stored in our database for station/object W5ADC. If no packets are shown the sender has not sent any weather packets the latest 10 day(s).
| Time | Temp. | Humidity | Pressure | Rain* | Wind** | Luminosity | Snow |
|---|---|---|---|---|---|---|---|
| 1788527845 | 25.56° C | 92% | 1011 hPa | 0 mm | - | 81 W/m² | - |
| 1788527541 | 25.56° C | 92% | 1010.8 hPa | 0 mm | - | 63 W/m² | - |
| 1788527235 | 25.56° C | 93% | 1011 hPa | 0 mm | - | 68 W/m² | - |
| 1788526934 | 25.56° C | 93% | 1010.7 hPa | 0 mm | - | 54 W/m² | - |
| 1788526631 | 25° C | 93% | 1010.7 hPa | 0 mm | - | 47 W/m² | - |
| 1788526326 | 25° C | 93% | 1010.7 hPa | 0 mm | - | 45 W/m² | - |
| 1788526021 | 25° C | 93% | 1010.6 hPa | 0 mm | - | 37 W/m² | - |
| 1788525717 | 25° C | 93% | 1010.5 hPa | 0 mm | - | 34 W/m² | - |
| 1788525416 | 25° C | 93% | 1010.8 hPa | 0 mm | - | 27 W/m² | - |
| 1788525112 | 25° C | 93% | 1010.5 hPa | 0 mm | - | 22 W/m² | - |
| 1788524806 | 25° C | 93% | 1010.5 hPa | 0 mm | - | 17 W/m² | - |
| 1788524502 | 25° C | 93% | 1010.4 hPa | 0 mm | - | 14 W/m² | - |
| 1788524197 | 24.44° C | 93% | 1010.6 hPa | 0 mm | - | 10 W/m² | - |
| 1788523892 | 24.44° C | 93% | 1010.5 hPa | 0 mm | - | 7 W/m² | - |
| 1788523607 | 24.44° C | 93% | 1010.4 hPa | 0 mm | - | 4 W/m² | - |
| 1788523285 | 24.44° C | 93% | 1010.5 hPa | 0 mm | - | 2 W/m² | - |
| 1788522985 | 24.44° C | 92% | 1010.5 hPa | 0 mm | - | 1 W/m² | - |
| 1788522680 | 24.44° C | 92% | 1010.5 hPa | 0 mm | - | 0 W/m² | - |
| 1788522374 | 24.44° C | 92% | 1010.4 hPa | 0 mm | - | 0 W/m² | - |
| 1788522069 | 25° C | 91% | 1010.3 hPa | 0 mm | - | 0 W/m² | - |
| 1788521763 | 25° C | 91% | 1010.5 hPa | 0 mm | - | 0 W/m² | - |
| 1788521462 | 25° C | 91% | 1010.4 hPa | 0 mm | - | 0 W/m² | - |
| 1788521158 | 25° C | 91% | 1010.2 hPa | 0 mm | - | 0 W/m² | - |
| 1788520854 | 25° C | 90% | 1010.3 hPa | 0 mm | - | 0 W/m² | - |
| 1788520549 | 25° C | 90% | 1010.1 hPa | 0 mm | - | 0 W/m² | - |
* Rain latest hour (hover to see other rain measurements)
** Current wind speed in m/s (hover to see current wind gust speed)